Location: Unspecified
(45.3712°N, 0.6436°E)
Time: 23:31:03
(UTC+02:00)

ISS - Pass Details

Date: 21 July 2018
Orbit: 402 x 408 km, 51.6° (Epoch: 16 July)

Event Time Altitude Azimuth Distance (km) Brightness Sun altitude
Rises 22:50:36 0° 232° (SW) 2,310 0.1 -11.0°
Reaches altitude 10° 22:52:40 10° 229° (SW) 1,455 -1.0 -11.2°
Maximum altitude 22:55:54 65° 147° (SSE) 447 -3.9 -11.6°
Drops below altitude 10° 22:59:10 10° 65° (ENE) 1,465 -1.2 -12.0°
Sets 23:01:15 0° 62° (ENE) 2,329 -0.1 -12.3°
